Regional Weather Roundup
Issued by NWS Northern Indiana

Home | Current Version | Previous Version | Text Only | Print | Product List | Glossary Off
Versions: 1 2 3 4 5 6 7 8 9 10 11 12 13 14 15 16 17 18 19 20 21 22 23 24 25 26 27 28 29 30 31 32 33 34 35 36 37 38 39 40 41 42 43 44 45 46 47 48 49 50

000
ASUS43 KIWX 231610
RWRIWX

KIWX WEATHER ROUNDUP
NATIONAL WEATHER SERVICE NORTHERN INDIANA
1200 PM EDT SAT JUL 23 2016

NOTE: "FAIR" INDICATES FEW OR NO CLOUDS BELOW 12,000 FEET WITH NO
SIGNIFICANT WEATHER AND/OR OBSTRUCTIONS TO VISIBILITY.

* THESE STATIONS ARE NOT UNDER NWS QUALITY CONTROL. THEY ALSO MAY NOT
  REPORT WEATHER SUCH AS PRECIPITATION OR FOG.

INZ001>027-231700-
NORTHERN INDIANA

CITY           SKY/WX    TMP DP  RH WIND       PRES   REMARKS
GARY*          PTSUNNY   88 N/A N/A NE7       30.00R
VALPARAISO     CLOUDY    86  76  71 SW5       30.01R HX  96
MICHIGAN CITY* MOSUNNY   86  81  84 NW3       30.01R HX 102
LAPORTE*       PTSUNNY   88  79  75 CALM      30.01R HX 102
KNOX*          MOSUNNY   84  68  58 CALM      30.00S
SOUTH BEND     MOSUNNY   88  74  63 CALM      30.01S HX  96
ELKHART*       SUNNY     88  77  70 CALM      30.01R HX 100
GOSHEN         MOSUNNY   88  67  49 CALM      30.01R
MONTICELLO*    MOSUNNY   85  73  67 SW6       30.01R
LOGANSPORT*    CLOUDY    82  73  74 W5        30.03R
ROCHESTER*     MOSUNNY   88  79  74 S3        30.01F HX 102
WARSAW*        MOSUNNY   86  72  62 CALM      30.01S
ANGOLA*          N/A     84  81  89 VRB5      30.02R HX  98
FORT WAYNE     PTSUNNY   85  73  67 W6        30.02R
HUNTINGTON*    MOSUNNY  N/A N/A N/A W6        30.02R
PERU/GRISSOM   PTSUNNY   86  75  70 VRB5      30.02R HX  95
MARION*        MOSUNNY   82  73  72 CALM      30.03S

$$
INZ028>050-231700-
CENTRAL INDIANA

CITY           SKY/WX    TMP DP  RH WIND       PRES   REMARKS
LAFAYETTE      MOSUNNY   83  75  77 SW5       30.01S
KOKOMO*        PTSUNNY   84  72  65 NW6       30.02R
MUNCIE*        SUNNY     86  73  65 W5        30.03S
INDIANAPOLIS   PTSUNNY   84  73  69 SW6       30.03S

$$
MIZ043>046-050>051-056>058-064>065-071>073-077>080-231700-
SOUTHWEST LOWER MICHIGAN

CITY           SKY/WX    TMP DP  RH WIND       PRES   REMARKS
BATTLE CREEK   SUNNY     85  68  56 N6        30.02S
BENTON HARBOR  PTSUNNY   85  74  69 W6        30.00R
COLDWATER*     SUNNY     83  62  48 CALM      30.02S
HOLLAND        SUNNY     89  72  56 NW5       30.01R HX  96
GRAND RAPIDS   MOSUNNY   87  65  47 VRB6      30.01R
KALAMAZOO      SUNNY     88  68  51 E6        30.01S
STURGIS*       SUNNY     84  68  58 E3        30.01S
THREE RIVERS*  FAIR      86  67  53 CALM      30.02S

$$
OHZ001>008-015>018-024>025-231700-
NORTHWEST OHIO

CITY           SKY/WX    TMP DP  RH WIND       PRES   REMARKS
WAUSEON*       FAIR      84  72  65 CALM      30.01R
DEFIANCE       SUNNY     87  69  54 N3        30.00R
FINDLAY        PTSUNNY   87  70  56 SW7       29.99F
TOLEDO EXPRESS SUNNY     86  72  62 CALM      29.99S
TOLEDO METCALF SUNNY     86  70  58 CALM      29.99F
LIMA           PTSUNNY   84  72  67 VRB6      30.01S

$$
AND FOR LAKE MICHIGAN COASTAL AND OPEN LAKE BUOY OBSERVATIONS

STATION/POSITION TEMP    WIND        PRES    VSBY  WAVE
                 AIR SEA DIR/SP/G                  HT/PER
                 (F)     (DEG/KT/KT) (MB)    (MI)  (FT/S)
CALUMET HARBOR    81      50/  4/  5 1015.1R
MICHIGAN CITY     78     240/  6/  6   N/A
BURNS HARBOR      81        CALM     1015.9S
SAINT JOSEPH      83     230/  3/  3 1017.3R
SOUTH LAKE BUOY   78 78   90/  2/  2 1015.1R         0
4 MI NW BRIDGMAN  76 76  260/  6/  6 1015.8R         0
MICHIGAN CITY     79 75  280/  2/  4   N/A           0

$$
&&




USA.gov is the U.S. government's official web portal to all federal, state and local government web resources and services.